Madison, SD

5:15 PM CDT on October 20, 2017 (GMT -0500)
Madison Municipal

Weather History for KMDS - August, 2014

Change the Weather History Date:

Wednesday, August 27, 2014

  Actual Average Record
Temperature  
Mean Temperature 64 °F -  
Max Temperature 75 °F 81 °F 89 °F (2013)
Min Temperature 53 °F 56 °F 53 °F (2014)
Degree Days  
Heating Degree Days 1    
Growing Degree Days 14 (Base 50)    
Moisture  
Dew Point 61 °F    
Average Humidity 92    
Maximum Humidity 100    
Minimum Humidity 69    
Precipitation  
Precipitation 0.00 in - - ()
Sea Level Pressure  
Sea Level Pressure 30.15 in    
Wind  
Wind Speed 6 mph (SE)    
Max Wind Speed 14 mph    
Max Gust Speed 20 mph    
Visibility 10 miles    
Events      
Averages and records for this station are not official NWS values.
T = Trace of Precipitation, MM = Missing Value Source: NWS Daily Summary

Daily Weather History Graph

Daily Weather History Graph

Search for Another Location

Airport or City:

Trip Planner

Search our weather history database for the weather conditions in past years. The results will help you decide how hot, cold, wet, or windy it might be!

Date:

Astronomy

Aug. 27, 2014 Rise Set
Actual Time 6:45 AM CDT 8:12 PM CDT
Civil Twilight 6:15 AM CDT 8:42 PM CDT
Nautical Twilight 5:39 AM CDT 9:19 PM CDT
Astronomical Twilight 5:00 AM CDT 9:57 PM CDT
Moon 8:48 AM CDT (8/27) 8:59 PM CDT (8/27)
Length of Visible Light 14h 27m
Length of Day
13h 27m
Waxing Crescent, 4% of the Moon is Illuminated
Aug 27
Waxing Crescent
Sep 2
First Quarter
Sep 8
Full
Sep 15
Last Quarter
Sep 24
New

Hourly Weather History & Observations

Time (CDT) Temp. Dew Point Humidity Pressure Visibility Wind Dir Wind Speed Gust Speed Precip Events Conditions
12:10 AM 57.2 °F 57.2 °F 100% 30.19 in 10.0 mi Calm Calm - N/A   Clear
12:30 AM 57.2 °F 57.2 °F 100% 30.19 in 10.0 mi ENE 3.5 mph - N/A   Clear
12:50 AM 57.2 °F 57.2 °F 100% 30.19 in 10.0 mi SE 3.5 mph - N/A   Clear
1:10 AM 57.2 °F 57.2 °F 100% 30.19 in 10.0 mi SSE 5.8 mph - N/A   Clear
1:30 AM 55.4 °F 55.4 °F 100% 30.19 in 10.0 mi SE 5.8 mph - N/A   Clear
1:50 AM 55.4 °F 55.4 °F 100% 30.18 in 10.0 mi ESE 4.6 mph - N/A   Clear
2:10 AM 55.4 °F 55.4 °F 100% 30.17 in 10.0 mi ESE 5.8 mph - N/A   Clear
2:30 AM 55.4 °F 55.4 °F 100% 30.18 in 10.0 mi ESE 3.5 mph - N/A   Clear
2:50 AM 55.4 °F 55.4 °F 100% 30.17 in 10.0 mi SE 5.8 mph - N/A   Clear
3:10 AM 55.4 °F 55.4 °F 100% 30.17 in 10.0 mi ESE 4.6 mph - N/A   Clear
3:30 AM 55.4 °F 55.4 °F 100% 30.17 in 10.0 mi ENE 3.5 mph - N/A   Clear
3:50 AM 53.6 °F 53.6 °F 100% 30.17 in 10.0 mi ENE 5.8 mph - N/A   Clear
4:10 AM 53.6 °F 53.6 °F 100% 30.17 in 10.0 mi ENE 4.6 mph - N/A   Clear
4:30 AM 53.6 °F 53.6 °F 100% 30.17 in 10.0 mi ENE 5.8 mph - N/A   Clear
4:50 AM 53.6 °F 53.6 °F 100% 30.17 in 10.0 mi ENE 5.8 mph - N/A   Clear
5:10 AM 53.6 °F 53.6 °F 100% 30.17 in 10.0 mi East 4.6 mph - N/A   Clear
5:30 AM 53.6 °F 53.6 °F 100% 30.17 in 10.0 mi ENE 4.6 mph - N/A   Clear
5:50 AM 53.6 °F 53.6 °F 100% 30.17 in 10.0 mi ENE 5.8 mph - N/A   Partly Cloudy
6:10 AM 53.6 °F 53.6 °F 100% 30.16 in 10.0 mi ENE 6.9 mph - N/A   Partly Cloudy
6:30 AM 53.6 °F 53.6 °F 100% 30.17 in 10.0 mi East 4.6 mph - N/A   Partly Cloudy
6:50 AM 53.6 °F 53.6 °F 100% 30.17 in 10.0 mi ENE 3.5 mph - N/A   Mostly Cloudy
7:10 AM 53.6 °F 53.6 °F 100% 30.16 in 10.0 mi ENE 5.8 mph - N/A   Scattered Clouds
7:30 AM 55.4 °F 55.4 °F 100% 30.17 in 10.0 mi East 5.8 mph - N/A   Clear
7:50 AM 55.4 °F 55.4 °F 100% 30.17 in 10.0 mi East 4.6 mph - N/A   Clear
8:10 AM 57.2 °F 57.2 °F 100% 30.18 in 10.0 mi East 3.5 mph - N/A   Clear
8:30 AM 57.2 °F 57.2 °F 100% 30.19 in 10.0 mi East 6.9 mph - N/A   Partly Cloudy
8:50 AM 57.2 °F 57.2 °F 100% 30.20 in 10.0 mi East 6.9 mph - N/A   Mostly Cloudy
9:10 AM 57.2 °F 57.2 °F 100% 30.21 in 10.0 mi ESE 6.9 mph - N/A   Overcast
9:30 AM 59.0 °F 59.0 °F 100% 30.21 in 10.0 mi SE 6.9 mph - N/A   Overcast
10:10 AM 60.8 °F 60.8 °F 100% 30.21 in 10.0 mi SE 8.1 mph - N/A   Mostly Cloudy
10:30 AM 62.6 °F 60.8 °F 94% 30.21 in 10.0 mi SE 9.2 mph - N/A   Mostly Cloudy
10:50 AM 64.4 °F 60.8 °F 88% 30.21 in 10.0 mi SE 9.2 mph - N/A   Mostly Cloudy
11:10 AM 64.4 °F 60.8 °F 88% 30.21 in 10.0 mi SE 10.4 mph - N/A   Mostly Cloudy
11:30 AM 66.2 °F 62.6 °F 88% 30.20 in 10.0 mi SE 6.9 mph - N/A   Partly Cloudy
11:50 AM 66.2 °F 62.6 °F 88% 30.19 in 10.0 mi SSE 9.2 mph - N/A   Clear
12:10 PM 66.2 °F 62.6 °F 88% 30.18 in 10.0 mi SSE 8.1 mph - N/A   Clear
12:30 PM 68.0 °F 62.6 °F 83% 30.18 in 10.0 mi SE 9.2 mph - N/A   Clear
12:50 PM 71.6 °F 62.6 °F 73% 30.16 in 10.0 mi SE 9.2 mph - N/A   Clear
1:10 PM 71.6 °F 62.6 °F 73% 30.15 in 10.0 mi SE 9.2 mph - N/A   Clear
1:30 PM 73.4 °F 64.4 °F 73% 30.15 in 10.0 mi SSE 10.4 mph - N/A   Clear
1:50 PM 73.4 °F 64.4 °F 73% 30.14 in 10.0 mi SSE 8.1 mph 16.1 mph N/A   Partly Cloudy
2:10 PM 73.4 °F 64.4 °F 73% 30.14 in 10.0 mi SSE 9.2 mph - N/A   Clear
2:30 PM 73.4 °F 64.4 °F 73% 30.14 in 10.0 mi SSE 10.4 mph 16.1 mph N/A   Scattered Clouds
2:50 PM 75.2 °F 64.4 °F 69% 30.13 in 10.0 mi SSE 9.2 mph - N/A   Scattered Clouds
3:10 PM 73.4 °F 64.4 °F 73% 30.13 in 10.0 mi SSE 11.5 mph 17.3 mph N/A   Scattered Clouds
3:30 PM 73.4 °F 64.4 °F 73% 30.12 in 10.0 mi SSE 13.8 mph - N/A   Scattered Clouds
3:50 PM 75.2 °F 64.4 °F 69% 30.13 in 10.0 mi South 10.4 mph 19.6 mph N/A   Partly Cloudy
4:10 PM 73.4 °F 64.4 °F 73% 30.13 in 10.0 mi SSE 10.4 mph 17.3 mph N/A   Scattered Clouds
4:30 PM 75.2 °F 64.4 °F 69% 30.12 in 10.0 mi SSE 9.2 mph - N/A   Mostly Cloudy
4:50 PM 71.6 °F 64.4 °F 78% 30.11 in 10.0 mi SSE 9.2 mph - N/A   Mostly Cloudy
5:10 PM 73.4 °F 66.2 °F 78% 30.11 in 10.0 mi SE 10.4 mph 16.1 mph N/A   Overcast
5:30 PM 71.6 °F 64.4 °F 78% 30.11 in 10.0 mi South 10.4 mph 17.3 mph N/A   Overcast
5:50 PM 71.6 °F 64.4 °F 78% 30.10 in 10.0 mi SSE 8.1 mph - N/A   Overcast
6:10 PM 71.6 °F 64.4 °F 78% 30.10 in 10.0 mi SSE 9.2 mph - N/A   Overcast
6:30 PM 69.8 °F 66.2 °F 88% 30.10 in 10.0 mi SSE 5.8 mph - N/A   Overcast
6:50 PM 69.8 °F 66.2 °F 88% 30.10 in 10.0 mi SSE 5.8 mph - N/A   Overcast
7:10 PM 69.8 °F 66.2 °F 88% 30.09 in 10.0 mi SE 4.6 mph - N/A   Overcast
7:30 PM 68.0 °F 68.0 °F 100% 30.09 in 10.0 mi ESE 3.5 mph - N/A   Overcast
7:50 PM 68.0 °F 68.0 °F 100% 30.09 in 10.0 mi SE 5.8 mph - N/A   Overcast
8:10 PM 68.0 °F 68.0 °F 100% 30.09 in 10.0 mi SE 5.8 mph - N/A   Overcast
8:30 PM 68.0 °F 68.0 °F 100% 30.09 in 10.0 mi SE 5.8 mph - N/A   Overcast
8:50 PM 68.0 °F 68.0 °F 100% 30.09 in 10.0 mi SE 6.9 mph - N/A   Overcast
9:10 PM 66.2 °F 66.2 °F 100% 30.10 in 10.0 mi SE 5.8 mph - N/A   Overcast
9:30 PM 66.2 °F 66.2 °F 100% 30.10 in 10.0 mi ESE 5.8 mph - N/A   Overcast
9:50 PM 66.2 °F 66.2 °F 100% 30.10 in 10.0 mi ESE 5.8 mph - N/A   Overcast
10:10 PM 66.2 °F 66.2 °F 100% 30.10 in 10.0 mi SE 5.8 mph - N/A   Mostly Cloudy
10:30 PM 66.2 °F 66.2 °F 100% 30.10 in 10.0 mi ESE 5.8 mph - N/A   Partly Cloudy
10:50 PM 66.2 °F 66.2 °F 100% 30.09 in 10.0 mi SE 8.1 mph - N/A   Mostly Cloudy
11:10 PM 66.2 °F 66.2 °F 100% 30.09 in 10.0 mi SE 9.2 mph - N/A   Overcast
11:30 PM 66.2 °F 66.2 °F 100% 30.09 in 10.0 mi SE 10.4 mph - N/A   Overcast